| time (UTC) | temp F | wind direction | speed knots | gust knots | rain 1hr in | rain 24hr in | rain mn in | humidity % | barometer mb |
| 20260506201023 | 68 | 324 | 0.9 | 4.3 | 0.00 | 0.00 | 0.00 | 70 | 1020.1 |
| 20260506200502 | 68 | 345 | 1.7 | 5.2 | 0.00 | 0.00 | 0.00 | 71 | 1020.1 |
| 20260506200002 | 67 | 350 | 1.7 | 7.0 | 0.00 | 0.00 | 0.00 | 69 | 1020.1 |
| 20260506195502 | 67 | 344 | 1.7 | 7.0 | 0.00 | 0.00 | 0.00 | 71 | 1020.1 |
| 20260506195002 | 67 | 345 | 1.7 | 5.2 | 0.00 | 0.00 | 0.00 | 71 | 1020.1 |
| 20260506194523 | 66 | 344 | 1.7 | 5.2 | 0.00 | 0.00 | 0.00 | 72 | 1020.1 |
| 20260506194002 | 66 | 334 | 0.9 | 5.2 | 0.00 | 0.00 | 0.00 | 71 | 1020.1 |
| 20260506193502 | 66 | 317 | 1.7 | 5.2 | 0.00 | 0.00 | 0.00 | 72 | 1020.1 |
| 20260506193002 | 65 | 321 | 1.7 | 5.2 | 0.00 | 0.00 | 0.00 | 73 | 1020.1 |
| 20260506192502 | 65 | 339 | 1.7 | 4.3 | 0.00 | 0.00 | 0.00 | 73 | 1020.1 |
| 20260506192023 | 64 | 345 | 1.7 | 4.3 | 0.00 | 0.00 | 0.00 | 74 | 1020.1 |
| 20260506191502 | 64 | 315 | 0.9 | 4.3 | 0.00 | 0.00 | 0.00 | 74 | 1018.7 |
| 20260506191023 | 64 | 305 | 0.9 | 3.5 | 0.00 | 0.00 | 0.00 | 74 | 1018.7 |
| 20260506190502 | 63 | 251 | 0.9 | 3.5 | 0.00 | 0.00 | 0.00 | 76 | 1018.7 |
| 20260506190002 | 63 | 218 | 0.9 | 3.5 | 0.00 | 0.00 | 0.00 | 75 | 1018.7 |
| 20260506185502 | 63 | 247 | 0.9 | 3.5 | 0.00 | 0.00 | 0.00 | 74 | 1018.7 |
| 20260506185002 | 63 | 253 | 0.9 | 3.5 | 0.00 | 0.00 | 0.00 | 74 | 1018.7 |
| 20260506184502 | 63 | 260 | 0.9 | 5.2 | 0.00 | 0.00 | 0.00 | 74 | 1018.7 |
| 20260506184002 | 63 | 263 | 0.9 | 5.2 | 0.00 | 0.00 | 0.00 | 74 | 1018.7 |
| 20260506183503 | 63 | 239 | 0.9 | 5.2 | 0.00 | 0.00 | 0.00 | 73 | 1018.7 |
| 20260506183002 | 63 | 219 | 1.7 | 5.2 | 0.00 | 0.00 | 0.00 | 74 | 1018.7 |
| 20260506182502 | 64 | 227 | 1.7 | 5.2 | 0.00 | 0.00 | 0.00 | 73 | 1018.7 |
| 20260506182002 | 64 | 314 | 0.9 | 3.5 | 0.00 | 0.00 | 0.00 | 74 | 1018.7 |
| 20260506181502 | 64 | 347 | 1.7 | 4.3 | 0.00 | 0.00 | 0.00 | 75 | 1018.7 |
| 20260506181023 | 63 | 340 | 1.7 | 4.3 | 0.00 | 0.00 | 0.00 | 74 | 1018.7 |
| 20260506180502 | 63 | 316 | 0.9 | 3.5 | 0.00 | 0.00 | 0.00 | 75 | 1018.7 |
| 20260506180002 | 63 | 340 | 0.9 | 5.2 | 0.00 | 0.00 | 0.00 | 75 | 1018.7 |
| 20260506175502 | 63 | 345 | 1.7 | 5.2 | 0.00 | 0.00 | 0.00 | 75 | 1018.7 |
| 20260506175002 | 62 | 349 | 0.9 | 4.3 | 0.00 | 0.00 | 0.00 | 76 | 1018.7 |
| 20260506174502 | 62 | 352 | 0.9 | 3.5 | 0.00 | 0.00 | 0.00 | 76 | 1018.7 |
| 20260506174002 | 62 | 345 | 0.9 | 3.5 | 0.00 | 0.01 | 0.00 | 76 | 1018.7 |
| 20260506173502 | 61 | 342 | 0.9 | 3.5 | 0.00 | 0.01 | 0.00 | 77 | 1018.7 |
| 20260506173002 | 61 | 333 | 0.9 | 3.5 | 0.00 | 0.01 | 0.00 | 77 | 1018.7 |
| 20260506172502 | 61 | 315 | 0.9 | 3.5 | 0.00 | 0.01 | 0.00 | 78 | 1018.7 |
| 20260506172002 | 60 | 326 | 0.9 | 7.0 | 0.00 | 0.01 | 0.00 | 78 | 1018.7 |
| 20260506171523 | 60 | 343 | 0.9 | 7.0 | 0.00 | 0.01 | 0.00 | 78 | 1018.7 |
| 20260506171002 | 60 | 344 | 0.9 | 4.3 | 0.00 | 0.01 | 0.00 | 79 | 1018.7 |
| 20260506170523 | 60 | 348 | 0.9 | 3.5 | 0.00 | 0.01 | 0.00 | 80 | 1018.7 |
| 20260506170002 | 59 | 349 | 0.9 | 3.5 | 0.00 | 0.01 | 0.00 | 80 | 1018.7 |
| 20260506165502 | 59 | 351 | 0.9 | 3.5 | 0.00 | 0.01 | 0.00 | 81 | 1018.7 |
| 20260506165002 | 59 | 353 | 0.9 | 3.5 | 0.00 | 0.01 | 0.00 | 82 | 1018.7 |
| 20260506164523 | 58 | 354 | 0.9 | 4.3 | 0.00 | 0.01 | 0.00 | 83 | 1018.7 |
| 20260506164002 | 58 | 355 | 1.7 | 4.3 | 0.00 | 0.01 | 0.00 | 83 | 1018.7 |
| 20260506163502 | 58 | 353 | 1.7 | 4.3 | 0.00 | 0.01 | 0.00 | 84 | 1018.7 |
| 20260506163023 | 58 | 352 | 1.7 | 4.3 | 0.00 | 0.02 | 0.00 | 86 | 1018.7 |
| 20260506162502 | 57 | 7 | 0.9 | 3.5 | 0.00 | 0.03 | 0.00 | 87 | 1018.7 |
| 20260506162002 | 56 | 29 | 0.0 | 2.6 | 0.00 | 0.04 | 0.00 | 87 | 1018.7 |
| 20260506161502 | 56 | 329 | 0.0 | 0.9 | 0.00 | 0.04 | 0.00 | 88 | 1018.7 |
| 20260506161002 | 56 | 329 | 0.0 | 0.9 | 0.00 | 0.05 | 0.00 | 89 | 1018.7 |
| 20260506160502 | 55 | 329 | 0.0 | 0.9 | 0.00 | 0.06 | 0.00 | 89 | 1018.7 |
| 20260506160002 | 55 | 329 | 0.0 | 0.9 | 0.00 | 0.06 | 0.00 | 89 | 1018.7 |
| 20260506155502 | 54 | 329 | 0.0 | 0.9 | 0.00 | 0.06 | 0.00 | 89 | 1018.7 |
| 20260506155002 | 54 | 0 | 0.0 | 0.0 | 0.00 | 0.06 | 0.00 | 89 | 1018.7 |
| 20260506154502 | 54 | 0 | 0.0 | 0.0 | 0.00 | 0.06 | 0.00 | 89 | 1018.7 |
| 20260506154002 | 54 | 329 | 0.9 | 2.6 | 0.00 | 0.06 | 0.00 | 89 | 1018.7 |
| 20260506153502 | 54 | 329 | 0.9 | 2.6 | 0.00 | 0.06 | 0.00 | 89 | 1018.7 |
| 20260506153023 | 54 | 334 | 0.9 | 3.5 | 0.00 | 0.06 | 0.00 | 90 | 1018.7 |
| 20260506152523 | 53 | 334 | 0.9 | 3.5 | 0.00 | 0.06 | 0.00 | 90 | 1018.7 |
| 20260506152002 | 53 | 334 | 0.0 | 2.6 | 0.00 | 0.06 | 0.00 | 90 | 1018.7 |
| 20260506151502 | 53 | 0 | 0.0 | 0.0 | 0.00 | 0.06 | 0.00 | 90 | 1018.7 |
| 20260506151002 | 53 | 0 | 0.0 | 0.0 | 0.00 | 0.06 | 0.00 | 90 | 1018.7 |
| 20260506150502 | 53 | 0 | 0.0 | 0.0 | 0.00 | 0.06 | 0.00 | 90 | 1018.7 |
| 20260506150002 | 53 | 0 | 0.0 | 0.0 | 0.00 | 0.06 | 0.00 | 90 | 1018.7 |
| 20260506145502 | 53 | 0 | 0.0 | 0.0 | 0.00 | 0.06 | 0.00 | 90 | 1018.7 |
| 20260506145002 | 53 | 0 | 0.0 | 0.0 | 0.00 | 0.06 | 0.00 | 90 | 1018.7 |
| 20260506144502 | 53 | 0 | 0.0 | 0.0 | 0.00 | 0.06 | 0.00 | 90 | 1018.7 |
| 20260506144002 | 53 | 0 | 0.0 | 0.0 | 0.00 | 0.06 | 0.00 | 90 | 1018.7 |
| 20260506143502 | 53 | 0 | 0.0 | 0.0 | 0.00 | 0.06 | 0.00 | 90 | 1018.7 |
| 20260506143002 | 52 | 0 | 0.0 | 0.0 | 0.00 | 0.06 | 0.00 | 91 | 1018.7 |
| 20260506142502 | 52 | 0 | 0.0 | 0.0 | 0.00 | 0.06 | 0.00 | 91 | 1018.7 |
| 20260506142002 | 52 | 0 | 0.0 | 0.0 | 0.00 | 0.06 | 0.00 | 90 | 1018.7 |
| 20260506141502 | 52 | 0 | 0.0 | 0.0 | 0.00 | 0.06 | 0.00 | 90 | 1018.7 |
| 20260506141002 | 52 | 0 | 0.0 | 0.0 | 0.00 | 0.06 | 0.00 | 90 | 1018.7 |
| 20260506140502 | 52 | 0 | 0.0 | 0.0 | 0.00 | 0.06 | 0.00 | 90 | 1018.7 |
| 20260506140023 | 52 | 0 | 0.0 | 0.0 | 0.00 | 0.06 | 0.00 | 90 | 1018.7 |
| 20260506135523 | 52 | 0 | 0.0 | 0.0 | 0.00 | 0.06 | 0.00 | 90 | 1018.7 |
| 20260506135002 | 52 | 0 | 0.0 | 0.0 | 0.00 | 0.06 | 0.00 | 90 | 1018.7 |
| 20260506134502 | 52 | 338 | 0.0 | 0.9 | 0.00 | 0.06 | 0.00 | 90 | 1018.7 |
| 20260506134002 | 52 | 338 | 0.0 | 0.9 | 0.00 | 0.06 | 0.00 | 90 | 1018.7 |
| 20260506133502 | 52 | 338 | 0.0 | 0.9 | 0.00 | 0.06 | 0.00 | 90 | 1018.7 |
| 20260506133002 | 52 | 338 | 0.0 | 1.7 | 0.00 | 0.06 | 0.00 | 90 | 1018.7 |
| 20260506132523 | 52 | 338 | 0.0 | 2.6 | 0.00 | 0.06 | 0.00 | 90 | 1018.7 |
| 20260506132002 | 52 | 338 | 0.0 | 2.6 | 0.00 | 0.06 | 0.00 | 90 | 1018.7 |
| 20260506131502 | 52 | 0 | 0.0 | 0.0 | 0.00 | 0.06 | 0.00 | 90 | 1018.7 |
| 20260506131002 | 52 | 0 | 0.0 | 0.0 | 0.00 | 0.06 | 0.00 | 90 | 1018.7 |
| 20260506130503 | 52 | 0 | 0.0 | 0.0 | 0.00 | 0.06 | 0.00 | 90 | 1018.7 |
| 20260506130003 | 52 | 0 | 0.0 | 0.0 | 0.00 | 0.06 | 0.00 | 90 | 1018.7 |
| 20260506125502 | 52 | 0 | 0.0 | 0.0 | 0.00 | 0.06 | 0.00 | 90 | 1018.7 |
| 20260506125023 | 52 | 0 | 0.0 | 0.0 | 0.00 | 0.06 | 0.00 | 90 | 1018.7 |
| 20260506124502 | 52 | 0 | 0.0 | 0.0 | 0.00 | 0.06 | 0.00 | 90 | 1018.7 |
| 20260506124002 | 52 | 0 | 0.0 | 0.0 | 0.00 | 0.06 | 0.00 | 90 | 1018.7 |
| 20260506123502 | 52 | 0 | 0.0 | 0.0 | 0.00 | 0.06 | 0.00 | 90 | 1018.7 |
| 20260506123002 | 52 | 0 | 0.0 | 0.0 | 0.00 | 0.06 | 0.00 | 90 | 1018.7 |
| 20260506122502 | 52 | 0 | 0.0 | 0.0 | 0.00 | 0.06 | 0.00 | 90 | 1018.7 |
| 20260506122002 | 52 | 0 | 0.0 | 0.0 | 0.00 | 0.06 | 0.00 | 90 | 1018.7 |
| 20260506121502 | 52 | 0 | 0.0 | 0.0 | 0.00 | 0.06 | 0.00 | 90 | 1018.7 |
| 20260506121024 | 52 | 0 | 0.0 | 0.0 | 0.00 | 0.06 | 0.00 | 90 | 1018.7 |
| 20260506120502 | 52 | 0 | 0.0 | 0.0 | 0.00 | 0.07 | 0.00 | 90 | 1018.7 |
| 20260506120002 | 52 | 331 | 0.0 | 2.6 | 0.00 | 0.07 | 0.00 | 90 | 1018.7 |
| 20260506115502 | 52 | 331 | 0.0 | 2.6 | 0.00 | 0.07 | 0.00 | 90 | 1018.7 |
| 20260506115002 | 52 | 329 | 0.0 | 0.9 | 0.00 | 0.07 | 0.00 | 90 | 1018.7 |
| 20260506114502 | 52 | 329 | 0.0 | 1.7 | 0.00 | 0.07 | 0.00 | 90 | 1018.7 |
| 20260506114002 | 52 | 329 | 0.0 | 1.7 | 0.00 | 0.07 | 0.00 | 90 | 1018.7 |
| 20260506113523 | 52 | 329 | 0.0 | 1.7 | 0.00 | 0.07 | 0.00 | 90 | 1018.7 |
| 20260506113002 | 52 | 329 | 0.0 | 1.7 | 0.00 | 0.07 | 0.00 | 90 | 1018.7 |
| 20260506112502 | 52 | 329 | 0.0 | 0.9 | 0.00 | 0.08 | 0.00 | 90 | 1018.7 |
| 20260506112002 | 52 | 329 | 0.0 | 0.9 | 0.00 | 0.08 | 0.00 | 90 | 1018.7 |
| 20260506111502 | 52 | 329 | 0.0 | 1.7 | 0.00 | 0.08 | 0.00 | 90 | 1018.7 |
| 20260506111002 | 52 | 329 | 0.0 | 1.7 | 0.00 | 0.08 | 0.00 | 90 | 1018.7 |
| 20260506110502 | 52 | 329 | 0.0 | 0.9 | 0.00 | 0.08 | 0.00 | 90 | 1018.7 |
| 20260506110002 | 52 | 329 | 0.0 | 0.9 | 0.00 | 0.08 | 0.00 | 90 | 1014.3 |
| 20260506105502 | 52 | 329 | 0.0 | 0.9 | 0.00 | 0.08 | 0.00 | 90 | 1014.3 |
| 20260506105002 | 52 | 328 | 0.0 | 1.7 | 0.00 | 0.08 | 0.00 | 90 | 1014.3 |
| 20260506104502 | 52 | 328 | 0.0 | 1.7 | 0.00 | 0.08 | 0.00 | 90 | 1014.3 |
| 20260506104002 | 52 | 0 | 0.0 | 0.0 | 0.00 | 0.08 | 0.00 | 90 | 1014.3 |
| 20260506103502 | 52 | 0 | 0.0 | 0.0 | 0.00 | 0.08 | 0.00 | 90 | 1014.3 |
| 20260506103002 | 52 | 0 | 0.0 | 0.0 | 0.00 | 0.08 | 0.00 | 90 | 1014.3 |
| 20260506102502 | 52 | 0 | 0.0 | 0.0 | 0.00 | 0.08 | 0.00 | 90 | 1014.3 |
| 20260506102002 | 52 | 0 | 0.0 | 0.0 | 0.00 | 0.09 | 0.00 | 90 | 1014.3 |
| 20260506101502 | 52 | 0 | 0.0 | 0.0 | 0.00 | 0.09 | 0.00 | 90 | 1014.3 |
| 20260506101002 | 52 | 0 | 0.0 | 0.0 | 0.00 | 0.09 | 0.00 | 90 | 1014.3 |
| 20260506100502 | 52 | 0 | 0.0 | 0.0 | 0.00 | 0.10 | 0.00 | 90 | 1014.3 |
| 20260506100003 | 52 | 0 | 0.0 | 0.0 | 0.00 | 0.10 | 0.00 | 90 | 1014.3 |
| 20260506095502 | 52 | 0 | 0.0 | 0.0 | 0.00 | 0.10 | 0.00 | 90 | 1014.3 |
| 20260506095002 | 52 | 0 | 0.0 | 0.0 | 0.00 | 0.10 | 0.00 | 90 | 1014.3 |
| 20260506094523 | 52 | 0 | 0.0 | 0.0 | 0.00 | 0.10 | 0.00 | 90 | 1014.3 |
| 20260506094002 | 52 | 0 | 0.0 | 0.0 | 0.00 | 0.10 | 0.00 | 90 | 1014.3 |
| 20260506093502 | 52 | 0 | 0.0 | 0.0 | 0.00 | 0.10 | 0.00 | 90 | 1014.3 |
| 20260506093002 | 52 | 0 | 0.0 | 0.0 | 0.00 | 0.10 | 0.00 | 90 | 1014.3 |
| 20260506092502 | 52 | 0 | 0.0 | 0.0 | 0.00 | 0.10 | 0.00 | 90 | 1014.3 |
| 20260506092003 | 52 | 0 | 0.0 | 0.0 | 0.00 | 0.10 | 0.00 | 90 | 1014.3 |
| 20260506091502 | 52 | 0 | 0.0 | 0.0 | 0.00 | 0.10 | 0.00 | 90 | 1014.3 |
| 20260506091002 | 52 | 0 | 0.0 | 0.0 | 0.00 | 0.10 | 0.00 | 90 | 1014.3 |
| 20260506090502 | 52 | 0 | 0.0 | 0.0 | 0.00 | 0.10 | 0.00 | 90 | 1014.3 |
| 20260506090002 | 52 | 0 | 0.0 | 0.0 | 0.00 | 0.10 | 0.00 | 90 | 1014.3 |
| 20260506085502 | 52 | 0 | 0.0 | 0.0 | 0.00 | 0.10 | 0.00 | 90 | 1014.3 |
| 20260506085024 | 52 | 0 | 0.0 | 0.0 | 0.00 | 0.10 | 0.00 | 90 | 1014.3 |
| 20260506084502 | 52 | 0 | 0.0 | 0.0 | 0.00 | 0.10 | 0.00 | 90 | 1014.3 |
| 20260506084002 | 52 | 0 | 0.0 | 0.0 | 0.00 | 0.10 | 0.00 | 90 | 1014.3 |
| 20260506083502 | 52 | 0 | 0.0 | 0.0 | 0.00 | 0.10 | 0.00 | 90 | 1014.3 |
| 20260506083002 | 52 | 0 | 0.0 | 0.0 | 0.00 | 0.10 | 0.00 | 90 | 1014.3 |
| 20260506082502 | 52 | 0 | 0.0 | 0.0 | 0.00 | 0.10 | 0.00 | 90 | 1014.3 |
| 20260506082002 | 52 | 0 | 0.0 | 0.0 | 0.00 | 0.10 | 0.00 | 90 | 1014.3 |
| 20260506081502 | 52 | 0 | 0.0 | 0.0 | 0.00 | 0.10 | 0.00 | 90 | 1014.3 |
| 20260506081002 | 52 | 0 | 0.0 | 0.0 | 0.00 | 0.10 | 0.00 | 90 | 1014.3 |
| 20260506080503 | 52 | 0 | 0.0 | 0.0 | 0.00 | 0.10 | 0.00 | 90 | 1014.3 |
| 20260506073502 | 52 | 0 | 0.0 | 0.0 | 0.00 | 0.10 | 0.00 | 89 | 1014.3 |
| 20260506073002 | 52 | 0 | 0.0 | 0.0 | 0.00 | 0.10 | 0.00 | 89 | 1014.3 |
| 20260506072503 | 52 | 0 | 0.0 | 0.0 | 0.00 | 0.10 | 0.00 | 89 | 1014.3 |
| 20260506072002 | 53 | 0 | 0.0 | 0.0 | 0.00 | 0.10 | 0.00 | 89 | 1014.3 |
| 20260506071503 | 53 | 0 | 0.0 | 0.0 | 0.00 | 0.10 | 0.00 | 89 | 1014.3 |
| 20260506071002 | 53 | 0 | 0.0 | 0.0 | 0.00 | 0.10 | 0.00 | 89 | 1014.3 |
| 20260506070503 | 53 | 0 | 0.0 | 0.0 | 0.00 | 0.10 | 0.00 | 89 | 1014.3 |
| 20260506062502 | 53 | 330 | 0.0 | 1.7 | 0.00 | 0.10 | 0.10 | 89 | 1014.3 |
| 20260506062002 | 53 | 327 | 0.0 | 1.7 | 0.00 | 0.10 | 0.10 | 89 | 1014.3 |
| 20260506061523 | 53 | 320 | 0.0 | 0.9 | 0.00 | 0.10 | 0.10 | 89 | 1014.3 |
| 20260506061002 | 53 | 0 | 0.0 | 0.0 | 0.00 | 0.10 | 0.10 | 89 | 1014.3 |
| 20260506060524 | 53 | 0 | 0.0 | 0.0 | 0.00 | 0.10 | 0.10 | 89 | 1014.3 |
| 20260506051003 | 54 | 269 | 0.0 | 0.9 | 0.00 | 0.10 | 0.10 | 88 | 1014.3 |
| 20260506050503 | 54 | 270 | 0.0 | 0.9 | 0.00 | 0.10 | 0.10 | 88 | 1014.3 |
| 20260506045003 | 54 | 281 | 0.0 | 0.9 | 0.00 | 0.10 | 0.10 | 88 | 1014.3 |
| 20260506044523 | 54 | 277 | 0.0 | 0.9 | 0.00 | 0.10 | 0.10 | 88 | 1014.3 |
| 20260506044003 | 54 | 270 | 0.0 | 0.9 | 0.00 | 0.10 | 0.10 | 88 | 1014.3 |
| 20260506043503 | 54 | 268 | 0.0 | 0.9 | 0.00 | 0.10 | 0.10 | 88 | 1014.3 |
| 20260506043003 | 54 | 269 | 0.0 | 0.9 | 0.00 | 0.10 | 0.10 | 88 | 1014.3 |
| 20260506042502 | 54 | 0 | 0.0 | 0.0 | 0.00 | 0.10 | 0.10 | 88 | 1014.3 |
| 20260506042002 | 54 | 0 | 0.0 | 0.0 | 0.00 | 0.10 | 0.10 | 88 | 1014.3 |
| 20260506041503 | 54 | 0 | 0.0 | 0.0 | 0.00 | 0.10 | 0.10 | 88 | 1014.3 |
| 20260506041003 | 54 | 0 | 0.0 | 0.0 | 0.00 | 0.10 | 0.10 | 88 | 1014.3 |
| 20260506040503 | 54 | 0 | 0.0 | 0.0 | 0.00 | 0.10 | 0.10 | 88 | 1014.3 |
| 20260506040003 | 54 | 0 | 0.0 | 0.0 | 0.00 | 0.10 | 0.10 | 88 | 1014.3 |
| 20260506035503 | 54 | 0 | 0.0 | 0.0 | 0.00 | 0.10 | 0.10 | 88 | 1014.3 |
| 20260506035003 | 54 | 0 | 0.0 | 0.0 | 0.00 | 0.10 | 0.10 | 88 | 1014.3 |
| 20260506034502 | 54 | 248 | 0.0 | 0.9 | 0.00 | 0.10 | 0.10 | 87 | 1014.3 |
| 20260506034024 | 54 | 268 | 0.0 | 2.6 | 0.00 | 0.10 | 0.10 | 87 | 1014.3 |
| 20260506033524 | 54 | 268 | 0.0 | 2.6 | 0.00 | 0.10 | 0.10 | 87 | 1014.3 |
| 20260506033003 | 54 | 227 | 0.0 | 1.7 | 0.00 | 0.10 | 0.10 | 87 | 1014.3 |
| 20260506032524 | 54 | 267 | 0.0 | 3.5 | 0.00 | 0.10 | 0.10 | 87 | 1014.3 |
| 20260506032024 | 54 | 249 | 0.0 | 3.5 | 0.00 | 0.10 | 0.10 | 87 | 1014.3 |
| 20260506031503 | 54 | 166 | 0.0 | 1.7 | 0.00 | 0.10 | 0.10 | 86 | 1014.3 |
| 20260506031002 | 55 | 154 | 0.0 | 0.9 | 0.00 | 0.10 | 0.10 | 87 | 1014.3 |
| 20260506030503 | 55 | 131 | 0.0 | 1.7 | 0.00 | 0.10 | 0.10 | 86 | 1014.3 |
| 20260506030003 | 55 | 179 | 0.0 | 1.7 | 0.00 | 0.10 | 0.10 | 86 | 1014.3 |
| 20260506025503 | 55 | 290 | 0.0 | 1.7 | 0.00 | 0.10 | 0.10 | 86 | 1014.3 |
| 20260506025024 | 55 | 339 | 0.0 | 1.7 | 0.00 | 0.10 | 0.10 | 86 | 1014.3 |
| 20260506024503 | 55 | 352 | 0.0 | 1.7 | 0.00 | 0.10 | 0.10 | 86 | 1014.3 |
| 20260506024003 | 55 | 350 | 0.0 | 1.7 | 0.00 | 0.10 | 0.10 | 85 | 1014.3 |
| 20260506023524 | 55 | 342 | 0.0 | 1.7 | 0.00 | 0.10 | 0.10 | 85 | 1014.3 |
| 20260506023003 | 55 | 324 | 0.0 | 0.9 | 0.00 | 0.10 | 0.10 | 85 | 1014.3 |
| 20260506022524 | 55 | 289 | 0.0 | 2.6 | 0.00 | 0.10 | 0.10 | 85 | 1014.3 |
| 20260506022024 | 55 | 279 | 0.0 | 2.6 | 0.00 | 0.10 | 0.10 | 85 | 1014.3 |
| 20260506021503 | 56 | 284 | 0.0 | 1.7 | 0.00 | 0.10 | 0.10 | 85 | 1014.3 |
| 20260506021024 | 56 | 268 | 0.0 | 1.7 | 0.00 | 0.10 | 0.10 | 85 | 1014.3 |
| 20260506020503 | 56 | 238 | 0.0 | 2.6 | 0.00 | 0.10 | 0.10 | 85 | 1014.3 |
| 20260506020003 | 56 | 238 | 0.0 | 2.6 | 0.00 | 0.10 | 0.10 | 84 | 1014.3 |
| 20260506015503 | 56 | 238 | 0.9 | 3.5 | 0.00 | 0.10 | 0.10 | 84 | 1014.3 |
| 20260506015003 | 56 | 233 | 0.9 | 3.5 | 0.00 | 0.10 | 0.10 | 84 | 1014.3 |
| 20260506014503 | 56 | 232 | 0.9 | 4.3 | 0.00 | 0.10 | 0.10 | 84 | 1014.3 |
| 20260506014024 | 56 | 243 | 0.0 | 4.3 | 0.00 | 0.10 | 0.10 | 84 | 1014.3 |
| 20260506013524 | 56 | 280 | 0.0 | 2.6 | 0.00 | 0.10 | 0.10 | 84 | 1014.3 |
| 20260506013024 | 57 | 292 | 0.0 | 1.7 | 0.00 | 0.10 | 0.10 | 84 | 1014.3 |
| 20260506012503 | 57 | 291 | 0.0 | 1.7 | 0.00 | 0.10 | 0.10 | 84 | 1014.3 |
| 20260506012003 | 57 | 277 | 0.0 | 1.7 | 0.00 | 0.10 | 0.10 | 84 | 1014.3 |
| 20260506011503 | 57 | 261 | 0.0 | 1.7 | 0.00 | 0.10 | 0.10 | 84 | 1014.3 |
| 20260506011024 | 57 | 260 | 0.0 | 1.7 | 0.00 | 0.10 | 0.10 | 84 | 1014.3 |
| 20260506010524 | 57 | 270 | 0.0 | 1.7 | 0.00 | 0.10 | 0.10 | 84 | 1014.3 |
| 20260506010003 | 57 | 283 | 0.0 | 1.7 | 0.00 | 0.10 | 0.10 | 84 | 1014.3 |
| 20260506005503 | 57 | 275 | 0.0 | 0.9 | 0.00 | 0.10 | 0.10 | 84 | 1014.3 |
| 20260506005003 | 57 | 297 | 0.0 | 1.7 | 0.00 | 0.10 | 0.10 | 84 | 1014.3 |
| 20260506004503 | 57 | 288 | 0.0 | 1.7 | 0.00 | 0.10 | 0.10 | 84 | 1014.3 |
| 20260506004024 | 57 | 233 | 0.0 | 3.5 | 0.00 | 0.10 | 0.10 | 84 | 1014.3 |
| 20260506003503 | 57 | 246 | 0.0 | 3.5 | 0.00 | 0.10 | 0.10 | 83 | 1014.3 |
| 20260506003003 | 57 | 257 | 0.0 | 2.6 | 0.00 | 0.10 | 0.10 | 84 | 1014.3 |
| 20260506002503 | 57 | 252 | 0.0 | 3.5 | 0.00 | 0.10 | 0.10 | 84 | 1014.3 |
| 20260506002003 | 57 | 249 | 0.0 | 3.5 | 0.00 | 0.10 | 0.10 | 83 | 1014.3 |
| 20260506001503 | 57 | 234 | 0.0 | 1.7 | 0.00 | 0.10 | 0.10 | 84 | 1014.3 |
| 20260506001024 | 57 | 236 | 0.0 | 2.6 | 0.00 | 0.10 | 0.10 | 84 | 1014.3 |
| 20260506000503 | 57 | 244 | 0.0 | 2.6 | 0.00 | 0.10 | 0.10 | 84 | 1014.3 |
| 20260506000003 | 57 | 254 | 0.0 | 1.7 | 0.00 | 0.10 | 0.10 | 84 | 1014.3 |
| 20260505235503 | 57 | 253 | 0.0 | 1.7 | 0.00 | 0.10 | 0.10 | 84 | 1014.3 |
| 20260505235003 | 57 | 259 | 0.0 | 1.7 | 0.00 | 0.10 | 0.10 | 84 | 1014.3 |
| 20260505234524 | 57 | 273 | 0.0 | 0.9 | 0.00 | 0.10 | 0.10 | 84 | 1014.3 |
| 20260505234003 | 58 | 273 | 0.0 | 0.9 | 0.00 | 0.10 | 0.10 | 84 | 1014.3 |
| 20260505233524 | 58 | 270 | 0.0 | 1.7 | 0.00 | 0.10 | 0.10 | 84 | 1014.3 |
| 20260505233003 | 58 | 297 | 0.9 | 3.5 | 0.00 | 0.10 | 0.10 | 83 | 1014.3 |
| 20260505232503 | 58 | 279 | 0.9 | 3.5 | 0.00 | 0.10 | 0.10 | 83 | 1014.3 |
| 20260505232003 | 58 | 241 | 0.9 | 4.3 | 0.00 | 0.10 | 0.10 | 84 | 1014.3 |
| 20260505231503 | 58 | 266 | 0.0 | 4.3 | 0.00 | 0.10 | 0.10 | 84 | 1014.3 |
| 20260505231003 | 58 | 298 | 0.0 | 2.6 | 0.00 | 0.10 | 0.10 | 84 | 1014.3 |
| 20260505230524 | 57 | 290 | 0.0 | 2.6 | 0.00 | 0.10 | 0.10 | 85 | 1014.3 |
| 20260505230003 | 57 | 268 | 0.0 | 1.7 | 0.00 | 0.10 | 0.10 | 85 | 1014.3 |
| 20260505225503 | 57 | 259 | 0.9 | 5.2 | 0.00 | 0.10 | 0.10 | 85 | 1014.3 |
| 20260505225003 | 57 | 257 | 0.9 | 5.2 | 0.00 | 0.10 | 0.10 | 85 | 1014.3 |
| 20260505224503 | 57 | 259 | 0.0 | 2.6 | 0.00 | 0.10 | 0.10 | 86 | 1014.3 |
| 20260505224024 | 57 | 258 | 0.0 | 1.7 | 0.00 | 0.10 | 0.10 | 87 | 1014.3 |
| 20260505223524 | 56 | 244 | 0.0 | 1.7 | 0.00 | 0.10 | 0.10 | 87 | 1014.3 |
| 20260505223003 | 56 | 244 | 0.0 | 1.7 | 0.00 | 0.10 | 0.10 | 87 | 1014.3 |
| 20260505222503 | 56 | 245 | 0.0 | 1.7 | 0.00 | 0.10 | 0.10 | 87 | 1014.3 |
| 20260505222003 | 56 | 243 | 0.0 | 2.6 | 0.00 | 0.10 | 0.10 | 87 | 1014.3 |
| 20260505221524 | 56 | 252 | 0.0 | 2.6 | 0.00 | 0.10 | 0.10 | 88 | 1014.3 |
| 20260505221003 | 56 | 251 | 0.0 | 2.6 | 0.00 | 0.10 | 0.10 | 89 | 1014.3 |
| 20260505220503 | 56 | 240 | 0.0 | 1.7 | 0.00 | 0.10 | 0.10 | 89 | 1014.3 |
| 20260505220003 | 56 | 256 | 0.0 | 1.7 | 0.00 | 0.10 | 0.10 | 90 | 1014.3 |
| 20260505215524 | 56 | 257 | 0.0 | 1.7 | 0.00 | 0.10 | 0.10 | 90 | 1014.3 |
| 20260505215003 | 56 | 256 | 0.0 | 0.9 | 0.00 | 0.10 | 0.10 | 90 | 1014.3 |
| 20260505214524 | 56 | 255 | 0.0 | 0.9 | 0.00 | 0.10 | 0.10 | 91 | 1014.3 |
| 20260505214003 | 56 | 259 | 0.0 | 2.6 | 0.00 | 0.10 | 0.10 | 91 | 1014.3 |
| 20260505213503 | 56 | 281 | 0.0 | 2.6 | 0.00 | 0.10 | 0.10 | 91 | 1014.3 |
| 20260505213003 | 56 | 287 | 0.0 | 3.5 | 0.00 | 0.10 | 0.10 | 91 | 1014.3 |
| 20260505212503 | 55 | 265 | 0.0 | 3.5 | 0.00 | 0.10 | 0.10 | 92 | 1014.3 |
| 20260505212003 | 55 | 236 | 0.0 | 0.9 | 0.00 | 0.10 | 0.10 | 92 | 1014.3 |
| 20260505211503 | 55 | 233 | 0.0 | 1.7 | 0.00 | 0.10 | 0.10 | 92 | 1014.3 |
| 20260505211003 | 55 | 254 | 0.9 | 2.6 | 0.00 | 0.10 | 0.10 | 92 | 1014.3 |
| 20260505210503 | 55 | 279 | 0.9 | 2.6 | 0.00 | 0.10 | 0.10 | 93 | 1014.3 |
| 20260505210003 | 55 | 292 | 0.0 | 2.6 | 0.00 | 0.10 | 0.10 | 93 | 1014.3 |
| 20260505205524 | 55 | 233 | 0.0 | 2.6 | 0.00 | 0.10 | 0.10 | 93 | 1014.3 |
| 20260505205003 | 55 | 226 | 0.0 | 2.6 | 0.00 | 0.10 | 0.10 | 94 | 1014.3 |
| 20260505204503 | 55 | 261 | 0.0 | 1.7 | 0.00 | 0.10 | 0.10 | 94 | 1014.3 |
| 20260505204024 | 55 | 327 | 0.0 | 2.6 | 0.00 | 0.10 | 0.10 | 94 | 1014.3 |
| 20260505203503 | 55 | 356 | 0.0 | 2.6 | 0.00 | 0.10 | 0.10 | 94 | 1014.3 |
| 20260505203024 | 55 | 335 | 0.0 | 2.6 | 0.00 | 0.10 | 0.10 | 94 | 1014.3 |
| 20260505202503 | 54 | 296 | 0.0 | 2.6 | 0.00 | 0.10 | 0.10 | 94 | 1014.3 |
| 20260505202003 | 54 | 251 | 0.0 | 2.6 | 0.00 | 0.10 | 0.10 | 95 | 1014.3 |
| 20260505201503 | 54 | 224 | 0.0 | 4.3 | 0.00 | 0.10 | 0.10 | 95 | 1014.3 |